Regional Weather Roundup
Issued by NWS

Home | Current Version | Previous Version | Text Only | Print | Product List | Glossary Off
Versions: 1 2 3 4 5 6 7 8 9 10 11 12 13 14 15 16 17 18 19 20 21 22 23 24 25 26 27 28 29 30 31 32 33 34 35 36 37 38 39 40 41 42 43 44 45 46 47 48 49 50

000
ASUS43 KLSX 280710
RWRMO

WEATHER SUMMARY FOR MISSOURI
NATIONAL WEATHER SERVICE SPRINGFIELD MO
200 AM CDT SAT MAY 28 2016

NOTE: "FAIR" INDICATES FEW OR NO CLOUDS BELOW 12,000 FEET WITH NO
       SIGNIFICANT WEATHER AND/OR OBSTRUCTIONS TO VISIBILITY.
       CURRENT SKY AND/OR WEATHER CONDITIONS ARE NOT AVAILABLE FOR
       CHILLICOTHE AND FARMINGTON.

MOZ001>031-035>038-043-044-053-054-280800-
...NORTHERN AND WESTERN MISSOURI...

CITY           SKY/WX    TMP DP  RH WIND       PRES   REMARKS
KANSAS CTY INT MOCLDY    59  57  93 SE7       29.74R
KANSAS C DTWN  CLOUDY    61  58  90 E6        29.73S
LEE`S SUMMIT   CLOUDY    59  57  93 E6        29.74F
ST JOSEPH      CLOUDY    60  58  92 CALM      29.74R
CHILLICOTHE      N/A     63  60  90 CALM      29.74F
KIRKSVILLE     CLOUDY    65  64  97 S3        29.76F

$$
MOZ066>068-077>081-088>096-101>105-280800-
...SOUTHWEST MISSOURI...

CITY           SKY/WX    TMP DP  RH WIND       PRES   REMARKS
SPRINGFIELD    CLOUDY    65  61  87 S6        29.82S
JOPLIN         CLOUDY    62  58  86 E5        29.80F

$$
MOZ032>034-039>042-045>050-055>058-069>072-280800-
...CENTRAL MISSOURI...

CITY           SKY/WX    TMP DP  RH WIND       PRES   REMARKS
COLUMBIA       MOCLDY    68  67  96 S12       29.80S
JEFFERSON CITY PTCLDY    69  66  90 S8        29.81R
ROLLA          CLEAR     66  63  90 S9        29.82S
SEDALIA        PTCLDY    64  60  87 SW7       29.81R
WHITEMAN AFB   CLOUDY    60  60 100 SW7       29.78R
WARRENSBURG    CLOUDY    59  57  94 SE5       29.77F

$$
MOZ051-052-059>065-280800-
...EAST CENTRAL MISSOURI...

CITY           SKY/WX    TMP DP  RH WIND       PRES   REMARKS
ST LOUIS INTL  PTCLDY    70  65  84 S13       29.84R
SPIRIT OF STL  CLOUDY    69  67  93 S7        29.82S
ST CHARLES     MOCLDY    69  68  96 S8        29.82S

$$
MOZ072>076-082>087-097>100-106>115-280800-
...SOUTH CENTRAL AND SOUTHEAST MISSOURI...

CITY           SKY/WX    TMP DP  RH WIND       PRES   REMARKS
CAPE GIRARDEAU CLOUDY    68  65  90 S8        29.89F
FARMINGTON     CLOUDY    67  64  90 S6        29.88S
POPLAR BLUFF   CLOUDY    68  64  87 S7        29.88S
WEST PLAINS    CLOUDY    68  63  84 S8        29.87F

$$




USA.gov is the U.S. government's official web portal to all federal, state and local government web resources and services.